Orbital Elements at Epoch 2459000.5 (2020-May-31.0) TDB
Reference: JPL 19 (heliocentric ecliptic J2000)
Element | Value | Uncertainty (1-sigma) | Units |
e | .1038378582393501 | 5.5316e-08 | |
a | 3.107394929937256 | 3.9363e-08 | au |
q | 2.784729695708756 | 1.6785e-07 | au |
i | 22.66323843528487 | 5.4013e-06 | deg |
node | 104.7790464853892 | 1.4828e-05 | deg |
peri | 105.024585713523 | 2.8439e-05 | deg |
M | 218.5834994189255 | 2.6309e-05 | deg |
tp | 2459786.442350793017 (2022-Jul-25.94235079) | 0.00015262 | TDB |
period | 2000.751292267171 5.48 | 3.8017e-05 1.041e-07 | d yr |
n | .17993240908622 | 3.4189e-09 | deg/d |
Q | 3.430060164165756 | 4.345e-08 | au |
|
| | Orbit Determination Parameters
Additional Information
|